• In Switzerland
  • List of Countries
  • For 7 days
  • Water Temperature
  • Satellite Maps
  • Weather Map
  • Weather Widgets
  • user-avatar
    Login

    Hourly Weather Lotkazino

    Today, 25 May, Friday

    Time Temperature Precipitation Wind Pressure Humidity
    00:00 +15°C° 0 mm 4 mps 753 mmHg 90%
    01:00 +15°C° 0 mm 4 mps 754 mmHg 90%
    02:00 +14°C° 0 mm 4 mps 754 mmHg 90%
    03:00 +13°C° 0 mm 3 mps 754 mmHg 92%
    04:00 +13°C° 0 mm 4 mps 754 mmHg 91%
    05:00 +14°C° 0 mm 5 mps 755 mmHg 90%
    06:00 +14°C° 0 mm 5 mps 755 mmHg 89%
    07:00 +15°C° 0 mm 6 mps 755 mmHg 82%
    08:00 +16°C° 0 mm 6 mps 756 mmHg 75%
    09:00 +17°C° 0 mm 6 mps 756 mmHg 68%
    10:00 +17°C° 0 mm 6 mps 756 mmHg 64%
    11:00 +19°C° 0 mm 6 mps 757 mmHg 59%
    12:00 +19°C° 0 mm 6 mps 757 mmHg 55%
    13:00 +19°C° 0 mm 6 mps 757 mmHg 53%
    14:00 +19°C° 0 mm 6 mps 757 mmHg 51%
    15:00 +19°C° 0 mm 6 mps 758 mmHg 49%
    16:00 +17°C° 0 mm 6 mps 758 mmHg 52%
    17:00 +16°C° 0 mm 5 mps 758 mmHg 54%
    18:00 +16°C° 0 mm 5 mps 758 mmHg 57%
    19:00 +14°C° 0 mm 5 mps 759 mmHg 59%
    20:00 +13°C° 0 mm 4 mps 760 mmHg 61%
    21:00 +11°C° 0 mm 4 mps 760 mmHg 63%
    22:00 +10°C° 0 mm 4 mps 761 mmHg 64%
    23:00 +8°C° 0 mm 4 mps 761 mmHg 64%

    Tomorrow, 26 May, Saturday

    Time Temperature Precipitation Wind Pressure Humidity
    00:00 +9°C° 0 mm 3 mps 762 mmHg 65%
    01:00 +8°C° 0 mm 3 mps 763 mmHg 67%
    02:00 +7°C° 0 mm 3 mps 763 mmHg 68%
    03:00 +5°C° 0 mm 3 mps 764 mmHg 70%
    04:00 +5°C° 0 mm 3 mps 764 mmHg 67%
    05:00 +7°C° 0 mm 3 mps 764 mmHg 65%
    06:00 +7°C° 0 mm 3 mps 765 mmHg 63%
    07:00 +8°C° 0 mm 4 mps 765 mmHg 56%
    08:00 +10°C° 0 mm 4 mps 766 mmHg 50%
    09:00 +12°C° 0 mm 4 mps 766 mmHg 44%
    10:00 +13°C° 0 mm 4 mps 766 mmHg 43%
    11:00 +14°C° 0 mm 4 mps 766 mmHg 42%
    12:00 +15°C° 0 mm 4 mps 766 mmHg 41%
    13:00 +15°C° 0 mm 4 mps 766 mmHg 40%
    14:00 +17°C° 0 mm 4 mps 766 mmHg 40%
    15:00 +17°C° 0 mm 3 mps 766 mmHg 40%
    16:00 +17°C° 0 mm 3 mps 766 mmHg 43%
    17:00 +17°C° 0 mm 2 mps 766 mmHg 46%
    18:00 +17°C° 0 mm 2 mps 765 mmHg 49%
    19:00 +14°C° 0 mm 1 mps 766 mmHg 54%
    20:00 +12°C° 0 mm 1 mps 766 mmHg 58%
    21:00 +9°C° 0 mm 0 mps 766 mmHg 62%
    22:00 +10°C° 0 mm 1 mps 766 mmHg 63%
    23:00 +10°C° 0 mm 1 mps 766 mmHg 64%

    Day after tomorrow, 27 May, Sunday

    Time Temperature Precipitation Wind Pressure Humidity
    00:00 +9°C° 0 mm 1 mps 766 mmHg 65%
    01:00 +8°C° 0 mm 2 mps 766 mmHg 67%
    02:00 +7°C° 0 mm 2 mps 766 mmHg 68%
    03:00 +7°C° 0 mm 2 mps 766 mmHg 70%
    04:00 +8°C° 0 mm 2 mps 766 mmHg 70%
    05:00 +9°C° 0 mm 3 mps 766 mmHg 69%
    06:00 +10°C° 0 mm 3 mps 766 mmHg 69%
    07:00 +12°C° 0 mm 3 mps 766 mmHg 64%
    08:00 +13°C° 0 mm 3 mps 765 mmHg 60%
    09:00 +15°C° 0 mm 4 mps 765 mmHg 55%
    10:00 +17°C° 0 mm 4 mps 765 mmHg 53%
    11:00 +19°C° 0 mm 4 mps 764 mmHg 51%
    12:00 +20°C° 0 mm 5 mps 764 mmHg 48%
    13:00 +20°C° 0 mm 5 mps 763 mmHg 49%
    14:00 +20°C° 0 mm 5 mps 762 mmHg 50%
    15:00 +20°C° 0 mm 5 mps 761 mmHg 50%
    16:00 +20°C° 0 mm 5 mps 761 mmHg 54%
    17:00 +19°C° 0 mm 5 mps 760 mmHg 58%
    18:00 +19°C° 0 mm 5 mps 759 mmHg 62%
    19:00 +17°C° 0 mm 5 mps 759 mmHg 66%
    20:00 +15°C° 0 mm 5 mps 759 mmHg 70%
    21:00 +14°C° 0 mm 4 mps 759 mmHg 74%
    22:00 +14°C° 0 mm 4 mps 759 mmHg 77%
    23:00 +14°C° 0 mm 4 mps 759 mmHg 79%

    28 May, Monday

    Time Temperature Precipitation Wind Pressure Humidity
    00:00 +13°C° 0 mm 4 mps 759 mmHg 82%
    01:00 +12°C° 0 mm 4 mps 759 mmHg 86%
    02:00 +11°C° 0 mm 3 mps 759 mmHg 90%
    03:00 +10°C° 0 mm 3 mps 760 mmHg 95%
    04:00 +10°C° 0 mm 3 mps 760 mmHg 90%
    05:00 +10°C° 0 mm 3 mps 760 mmHg 86%
    06:00 +10°C° 0 mm 3 mps 761 mmHg 82%
    07:00 +12°C° 0 mm 4 mps 761 mmHg 72%
    08:00 +13°C° 0 mm 4 mps 762 mmHg 63%
    09:00 +14°C° 0 mm 5 mps 762 mmHg 53%
    10:00 +15°C° 0 mm 5 mps 762 mmHg 50%
    11:00 +15°C° 0 mm 5 mps 762 mmHg 46%
    12:00 +16°C° 0 mm 5 mps 762 mmHg 43%
    13:00 +16°C° 0 mm 5 mps 762 mmHg 42%
    14:00 +16°C° 0 mm 5 mps 762 mmHg 42%
    15:00 +16°C° 0 mm 5 mps 762 mmHg 41%
    16:00 +17°C° 0 mm 4 mps 762 mmHg 44%
    17:00 +17°C° 0 mm 4 mps 762 mmHg 48%
    18:00 +16°C° 0 mm 3 mps 762 mmHg 51%
    19:00 +13°C° 0 mm 3 mps 763 mmHg 56%
    20:00 +12°C° 0 mm 2 mps 763 mmHg 61%
    21:00 +9°C° 0 mm 2 mps 763 mmHg 66%
    22:00 +9°C° 0 mm 2 mps 763 mmHg 67%
    23:00 +8°C° 0 mm 2 mps 763 mmHg 69%

    29 May, Tuesday

    Time Temperature Precipitation Wind Pressure Humidity
    00:00 +8°C° 0 mm 2 mps 763 mmHg 70%
    01:00 +7°C° 0 mm 2 mps 764 mmHg 71%
    02:00 +7°C° 0 mm 2 mps 764 mmHg 72%
    03:00 +7°C° 0 mm 2 mps 764 mmHg 72%
    04:00 +8°C° 0 mm 2 mps 764 mmHg 70%
    05:00 +9°C° 0 mm 3 mps 763 mmHg 68%
    06:00 +10°C° 0 mm 3 mps 763 mmHg 66%
    07:00 +12°C° 0 mm 4 mps 763 mmHg 61%
    08:00 +14°C° 0 mm 4 mps 763 mmHg 56%
    09:00 +16°C° 0 mm 5 mps 762 mmHg 51%
    10:00 +17°C° 0 mm 5 mps 762 mmHg 49%
    11:00 +20°C° 0 mm 5 mps 762 mmHg 47%
    12:00 +21°C° 0 mm 6 mps 761 mmHg 45%
    13:00 +22°C° 0 mm 6 mps 761 mmHg 45%
    14:00 +22°C° 0 mm 5 mps 760 mmHg 45%
    15:00 +23°C° 0 mm 5 mps 760 mmHg 45%
    16:00 +22°C° 0 mm 5 mps 760 mmHg 49%
    17:00 +22°C° 0 mm 4 mps 759 mmHg 53%
    18:00 +21°C° 0 mm 4 mps 759 mmHg 57%
    19:00 +20°C° 0 mm 4 mps 759 mmHg 62%
    20:00 +18°C° 0 mm 4 mps 759 mmHg 67%
    21:00 +15°C° 0 mm 4 mps 758 mmHg 73%
    22:00 +14°C° 0 mm 3 mps 758 mmHg 74%
    23:00 +14°C° 0 mm 3 mps 758 mmHg 76%

    30 May, Wednesday

    Time Temperature Precipitation Wind Pressure Humidity
    00:00 +13°C° 0 mm 3 mps 758 mmHg 78%
    01:00 +12°C° 0 mm 3 mps 757 mmHg 79%
    02:00 +12°C° 0 mm 3 mps 757 mmHg 79%
    03:00 +12°C° 0 mm 3 mps 757 mmHg 80%
    04:00 +12°C° 0 mm 4 mps 756 mmHg 78%
    05:00 +13°C° 0 mm 4 mps 756 mmHg 77%
    06:00 +13°C° 0 mm 4 mps 755 mmHg 75%
    07:00 +15°C° 0 mm 4 mps 755 mmHg 71%
    08:00 +17°C° 0 mm 5 mps 754 mmHg 67%
    09:00 +20°C° 0 mm 5 mps 754 mmHg 63%
    10:00 +22°C° 0 mm 6 mps 753 mmHg 60%
    11:00 +23°C° 0 mm 6 mps 753 mmHg 56%
    12:00 +24°C° 0 mm 7 mps 752 mmHg 53%
    13:00 +26°C° 0 mm 7 mps 752 mmHg 52%
    14:00 +26°C° 0 mm 7 mps 751 mmHg 52%
    15:00 +26°C° 0 mm 7 mps 751 mmHg 51%
    16:00 +26°C° 0 mm 7 mps 750 mmHg 54%
    17:00 +24°C° 0 mm 6 mps 750 mmHg 57%
    18:00 +25°C° 0 mm 5 mps 750 mmHg 60%
    19:00 +22°C° 0 mm 5 mps 749 mmHg 65%
    20:00 +21°C° 0 mm 5 mps 749 mmHg 69%
    21:00 +20°C° 0 mm 4 mps 749 mmHg 73%
    22:00 +19°C° 0.1 mm 4 mps 749 mmHg 78%
    23:00 +18°C° 0.1 mm 4 mps 749 mmHg 83%
    Show more